West Chicago, IL

7:04 AM CDT on August 27, 2016 (GMT -0500)
Du Page

Weather History for KDPA - November, 2012

Change the Weather History Date:

Monday, November 19, 2012

  Actual Average Record
Temperature  
Mean Temperature 48 °F 39 °F  
Max Temperature 59 °F 47 °F 59 °F (2012)
Min Temperature 37 °F 30 °F 15 °F (2014)
Degree Days  
Heating Degree Days 17 26  
Month to date heating degree days 482 418  
Since 1 July heating degree days 1109 929  
Cooling Degree Days 0 0  
Month to date cooling degree days 0 0  
Year to date cooling degree days 1093 814  
Moisture  
Dew Point 37 °F    
Average Humidity 68    
Maximum Humidity 83    
Minimum Humidity 49    
Precipitation  
Precipitation T in 0.09 in 0.27 in (2004)
Month to date precipitation 0.66 2.03  
Year to date precipitation 19.60 34.14  
Sea Level Pressure  
Sea Level Pressure 30.21 in    
Wind  
Wind Speed 7 mph (South)    
Max Wind Speed 16 mph    
Max Gust Speed 21 mph    
Visibility 9 miles    
Events Rain    
T = Trace of Precipitation, MM = Missing Value Source: NWS Daily Summary

Daily Weather History Graph

Daily Weather History Graph

Search for Another Location

Airport or City:

Trip Planner

Search our weather history database for the weather conditions in past years. The results will help you decide how hot, cold, wet, or windy it might be!

Date:

Astronomy

Nov. 19, 2012 Rise Set
Actual Time 6:48 AM CST 4:28 PM CST
Civil Twilight 6:17 AM CST 4:58 PM CST
Nautical Twilight 5:43 AM CST 5:32 PM CST
Astronomical Twilight 5:10 AM CST 6:06 PM CST
Moon 11:48 AM CST (11/19) 10:58 PM CST (11/19)
Length of Visible Light 10h 41m
Length of Day
9h 40m
Waxing Crescent, 41% of the Moon is Illuminated
Nov 19
Waxing Crescent
Nov 20
First Quarter
Nov 28
Full
Dec 6
Last Quarter
Dec 13
New

Hourly Weather History & Observations

Time (CST) Temp. Windchill Dew Point Humidity Pressure Visibility Wind Dir Wind Speed Gust Speed Precip Events Conditions
12:52 AM 43.0 °F 39.5 °F 34.0 °F 71% 30.31 in 10.0 mi South 5.8 mph - N/A   Clear
1:52 AM 41.0 °F 36.4 °F 33.1 °F 73% 30.30 in 9.0 mi SSE 6.9 mph - N/A   Clear
2:52 AM 39.9 °F 37.8 °F 34.0 °F 79% 30.29 in 9.0 mi South 3.5 mph - N/A   Clear
3:52 AM 41.0 °F 38.0 °F 34.0 °F 76% 30.28 in 10.0 mi SSE 4.6 mph - N/A   Clear
4:52 AM 41.0 °F 39.0 °F 34.0 °F 76% 30.30 in 9.0 mi South 3.5 mph - N/A   Clear
5:52 AM 37.9 °F 35.5 °F 33.1 °F 83% 30.29 in 9.0 mi SSE 3.5 mph - N/A   Clear
6:52 AM 37.9 °F 35.5 °F 32.0 °F 79% 30.28 in 8.0 mi SSE 3.5 mph - N/A   Clear
7:52 AM 41.0 °F 36.4 °F 34.0 °F 76% 30.28 in 7.0 mi SSE 6.9 mph - N/A   Clear
8:52 AM 44.1 °F 40.1 °F 35.1 °F 71% 30.27 in 7.0 mi SSE 6.9 mph - N/A   Clear
9:52 AM 48.0 °F - 37.0 °F 66% 30.27 in 8.0 mi South 8.1 mph - N/A   Clear
10:52 AM 52.0 °F - 37.0 °F 57% 30.24 in 9.0 mi South 9.2 mph - N/A   Clear
11:52 AM 55.0 °F - 39.0 °F 55% 30.21 in 10.0 mi South 10.4 mph - N/A   Clear
12:52 PM 55.9 °F - 37.9 °F 51% 30.19 in 10.0 mi South 8.1 mph - N/A   Clear
1:52 PM 57.9 °F - 39.0 °F 49% 30.17 in 10.0 mi SSW 11.5 mph - N/A   Clear
2:52 PM 55.9 °F - 39.0 °F 53% 30.17 in 10.0 mi South 9.2 mph - N/A   Mostly Cloudy
3:52 PM 55.0 °F - 39.0 °F 55% 30.15 in 10.0 mi South 11.5 mph - N/A   Overcast
4:52 PM 51.1 °F - 39.0 °F 63% 30.14 in 10.0 mi South 6.9 mph - N/A   Overcast
5:52 PM 51.1 °F - 39.0 °F 63% 30.15 in 10.0 mi South 5.8 mph - N/A   Overcast
6:52 PM 50.0 °F - 39.0 °F 66% 30.14 in 9.0 mi South 8.1 mph - N/A   Mostly Cloudy
7:52 PM 50.0 °F - 39.0 °F 66% 30.14 in 9.0 mi South 5.8 mph - N/A   Overcast
8:52 PM 48.9 °F - 42.1 °F 77% 30.12 in 9.0 mi South 6.9 mph - 0.00 in Rain Light Rain
9:52 PM 50.0 °F - 42.1 °F 74% 30.12 in 8.0 mi South 6.9 mph - 0.00 in   Overcast
10:52 PM 48.9 °F - 42.1 °F 77% 30.11 in 9.0 mi South 6.9 mph - N/A   Overcast
11:52 PM 48.9 °F - 42.1 °F 77% 30.10 in 9.0 mi South 5.8 mph - N/A   Overcast